sat.trackr.live / text

‹ back to catalog

STARLINK-31007

NORAD 58889 · 2024-020P

PAYLOAD ACTIVE UNKNOWN

§ Identity

Operator
Country
US
Launch date
2024-01-29
Launch site
AFWTR
Launch vehicle
Mass (kg)
RCS (m²)

Purposes: comms

External: N2YO · Heavens-Above · Gunter

§ Orbital elements

Epoch: 2026-09-19T03:19:01.958304Z

Period
93.85 min
Inclination
53.1594°
Eccentricity
0.0001114
Mean motion
15.34385843 rev/d
Perigee alt
462.0 km
Apogee alt
463.5 km
Semi-major
6,840.9 km
B*
6.5013e-5
RAAN
139.9964°
Arg perigee
78.4470°
Mean anomaly
281.6658°
Rev number
14,774

§ Raw data

STARLINK-310071 58889U 24020P   26262.13821711  .00001820  00000+0  65013-4 0  99972 58889  53.1594 139.9964 0001114  78.4470 281.6658 15.34385843147748

JSON: /api/v1/satellites/58889 · /tle

For live sub-satellite position, see the globe view (requires WebGL).

§ Visibility from observer

Set your observer location to see the next 7 days of passes ≥ 10°. The values pass through the URL so the page stays shareable.

No JS? Fill the form by hand. The geolocation button needs JavaScript.